FENGYUN 1C DEB

Satellite information

Favourite Embed

Satellite Type and Status

DEBRISIN ORBIT

Key statistics

Satellite FENGYUN 1C DEB at a glance.

Uptime

9714

Days in orbit

Revolutions

≈ 14.4

Per day

Orbit

SSO

Sun Synchronous Orbit

Inclination

98.9

Latest

Satellite identification and parameters

Extended collection of information and parameters for FENGYUN 1C DEB.

Object identification

Identified? True

Debris? True

Object name: FENGYUN 1C DEB

International designator: 1999-025EZM

Object number (NORAD): 46987

Object ID (CCSDS): 46987

Country: PEOPLES REPUBLIC OF CHINA (PRC)

Current information (Y/N): Y

RCS size: SMALL

Orbital parameters

Period: 100.301 minutes

Inclination: 98.8939 deg

SMA: 7150.954 km

Apoapsis: 800.919 km

Periapsis: 744.719 km

RAAN: 125.6966 deg

Eccentricy: 0.00392952

Argument of periapsis: 263.8981 deg

Mean anomaly: 95.7726 deg

Mean motion: 14.35677215 rev/day

Mean motion (dot): 0.0001179 rev/day2

B* drag term: 0.0040578221 1/REarth

Two-line elements (TLE)

Creation date: Oct. 18, 2025, 2:17 a.m.

Reference frame: TEME

Reference center: EARTH

Epoch: Jan. 8, 2025, 1:53 p.m. UTC

TLE line 0: 0 FENGYUN 1C DEB

TLE line 1: 1 46987U 99025EZM 25008.57873667 .00011790 00000-0 40578-2 0 9997

TLE line 2: 2 46987 98.8939 125.6966 0039295 263.8981 95.7726 14.35677215524741

Live tracking on map

Real-time ground track for satellite FENGYUN 1C DEB.

In-orbit conjunctions

A list of the most updated potential collisions computed for object FENGYUN 1C DEB.

Target Orbit TCA Probability of collision Miss distance Type
IRIDIUM 33 DEB LEO 2024-09-27 09:28:38 0.000123018 836.0 (m) DEBRIS
COSMOS 372 LEO 2024-07-05 12:56:33 0.002774578 77.0 (m) PAYLOAD

Associated space launch

Chinese polar orbiting meteorological satellite

FENGYUN 1C DEB was lifted into orbit during the mission ‘Long March 4B | Feng Yun 1C’, on board a Long March 4B space rocket.

The launch took place on May 10, 1999, 1:33 a.m. from Launch Complex 7.

For more information about the launch, click the button.

Launch to space Long March 4B | Feng Yun 1C
Long March 4B | Feng Yun 1C

Agency: N/A

Status: Launch Successful

Launch date: May 10, 1999, 1:33 a.m. UTC

Rocket: Long March 4B

Launch pad: Launch Complex 7

Location: Taiyuan Satellite Launch Center, People's Republic of China

...

Latest news about this satellite

There are no fresh news available about this satellite. Check back as we update our databases every day.


Newsletter sign-up

Weekly statistics, charts and insights to help you stay on top of the space industry.